Location: Budapest
(47.4979°N, 19.0402°E)
Time: 13:47:09
(UTC+01:00)

Vanguard 2 - All Passes

Search period start: 18 December 2017 00:00
Search period end: 28 December 2017 00:00
Orbit: 553 x 2939 km, 32.9° (Epoch: 17 December)

Date Brightness Start Highest point End Pass type
(mag) Time Alt. Az. Time Alt. Az. Time Alt. Az.
18 Dec - 11:10:57 10° SSE 11:13:58 11° SSE 11:16:42 10° SE daylight
18 Dec - 13:15:29 10° SSW 13:22:50 21° S 13:28:11 10° ESE daylight
18 Dec - 15:25:01 10° SW 15:31:01 23° S 15:35:22 10° SE daylight
18 Dec - 17:36:29 10° SW 17:38:17 11° SSW 17:39:54 10° S visible
19 Dec - 11:25:14 10° S 11:31:52 16° SSE 11:37:12 10° SE daylight
19 Dec - 13:32:37 10° SW 13:40:44 25° S 13:46:24 10° ESE daylight
19 Dec - 15:42:53 10° WSW 15:48:48 22° SSW 15:53:05 10° SE daylight
20 Dec - 11:41:11 10° SSW 11:49:46 20° SSE 11:56:13 10° ESE daylight
20 Dec - 13:50:03 10° SW 13:58:37 27° S 14:04:26 10° ESE daylight
20 Dec - 16:00:55 10° WSW 16:06:31 21° SSW 16:10:38 10° SSE daylight
21 Dec - 09:53:14 10° S 09:58:21 13° SSE 10:02:52 10° SE daylight
21 Dec - 11:57:48 10° SSW 12:07:41 25° SSE 12:14:43 10° ESE daylight
21 Dec - 14:07:43 10° WSW 14:16:28 29° S 14:22:21 10° SE daylight
21 Dec - 16:19:09 10° WSW 16:24:10 18° SSW 16:27:59 10° SSE daylight
22 Dec - 10:07:39 10° S 10:16:11 18° SSE 10:23:07 10° ESE daylight
22 Dec - 12:14:51 10° SW 12:25:35 29° S 12:32:58 10° ESE daylight
22 Dec - 14:25:32 10° WSW 14:34:16 29° S 14:40:08 10° SE daylight
22 Dec - 16:37:40 10° WSW 16:41:44 15° SSW 16:45:00 10° S visible
23 Dec - 10:23:28 10° SSW 10:34:03 22° SSE 10:42:10 10° ESE daylight
23 Dec - 12:32:13 10° SW 12:43:29 32° S 12:51:02 10° ESE daylight
23 Dec - 14:43:30 10° WSW 14:52:02 28° SSW 14:57:48 10° SE daylight
23 Dec - 16:56:50 10° SW 16:59:13 12° SW 17:01:19 10° SSW visible
24 Dec - 08:36:24 10° SSE 08:42:17 13° SE 08:47:37 10° ESE daylight
24 Dec - 10:39:56 10° SSW 10:51:55 27° SSE 11:00:44 10° ESE daylight
24 Dec - 12:49:47 10° WSW 13:01:21 35° S 13:08:58 10° ESE daylight
24 Dec - 15:01:35 10° WSW 15:09:44 26° SSW 15:15:19 10° SSE daylight
25 Dec - 08:50:28 10° S 09:00:01 18° SSE 09:08:09 10° ESE daylight
25 Dec - 10:56:52 10° SW 11:09:47 32° SSE 11:19:01 10° ESE daylight
25 Dec - 13:07:33 10° WSW 13:19:12 36° S 13:26:49 10° ESE daylight
25 Dec - 15:19:50 10° WSW 15:27:21 23° SSW 15:32:39 10° SSE daylight
26 Dec - 09:06:02 10° SSW 09:17:46 23° SSE 09:27:23 10° ESE daylight
26 Dec - 11:14:07 10° SW 11:27:40 36° S 11:37:08 10° ESE daylight
26 Dec - 13:25:27 10° WSW 13:37:01 36° S 13:44:33 10° SE daylight
26 Dec - 15:38:18 10° WSW 15:44:51 19° SSW 15:49:42 10° S daylight
27 Dec - 07:20:56 10° SSE 07:25:54 12° SE 07:30:37 10° ESE daylight
27 Dec - 09:22:19 10° SSW 09:35:32 28° SSE 09:46:03 10° ESE daylight
27 Dec - 11:31:36 10° SW 11:45:34 39° S 11:55:08 10° ESE daylight
27 Dec - 13:43:28 10° WSW 13:54:45 34° SSW 14:02:11 10° SE daylight
27 Dec - 15:57:10 10° WSW 16:02:15 15° SW 16:06:19 10° S daylight
